Flag for Japan Weather past 2 weeks in Suzuka, Japan

Now
77 °F

Warm.


Feels Like: 79 °F
Forecast: 70 / 78 °F
Wind: 3 mph from South

Location: Tsu

Current Time: Aug 28, 2014 at 12:21:32 AM

Latest Report: Aug 27, 2014 at 11:00 PM


Visibility: N/A

Pressure: 29.95 "Hg

Humidity: 78%

Dew point: 70 °F

Location of SuzukaLocation

Historic Weather in Suzuka — Graph

°F

Suzuka temperature yesterday

Maximum temperature yesterday: 81 °F (at 12:00 PM)
Minimum temperature yesterday: 77 °F (at 10:00 PM)
Average temperature yesterday: 79 °F

Past Weeks' High & Low Weather Summary

 TemperatureHumidityPressure
High92 °F (Aug 26, 2:00 PM)97% (Aug 14, 11:00 AM)30.01 "Hg (Aug 14, 11:00 AM)
Low74 °F (Aug 13, 6:00 AM)52% (Aug 26, 2:00 PM)29.70 "Hg (Aug 26, 3:00 PM)
Average81 °F82%29.87 "Hg
* Reported Aug 12 10:00 PM — Aug 27 10:00 PM, Suzuka, Weather by CustomWeather, © 2014

Note: Actual official high and low records may vary slightly from our data, if they occured in-between our weather recording intervals... More about our weather records

Advertising

Suzuka weather history for previous 24 hours

 ConditionsComfort  
Time TempWeatherWind HumidityBarometerVisibility
10:00 PM
Aug 27
77 °FMild.5 mph78%29.95 "HgN/A
9:00 PM77 °FOvercast.8 mph79%29.95 "Hg9 mi
8:00 PM78 °FWarm.8 mph78%29.95 "HgN/A
7:00 PM78 °FWarm.12 mph77%29.93 "HgN/A
5:00 PM79 °FWarm.9 mph76%29.90 "HgN/A
4:00 PM80 °FWarm.10 mph72%29.90 "HgN/A
3:00 PM80 °FOvercast.12 mph75%29.90 "Hg9 mi
2:00 PM80 °FWarm.13 mph75%29.90 "HgN/A
1:00 PM80 °FWarm.12 mph75%29.91 "HgN/A
12:00 PM81 °FWarm.15 mph72%29.90 "HgN/A
11:00 AM80 °FWarm.13 mph78%29.90 "HgN/A
10:00 AM80 °FWarm.12 mph78%29.90 "HgN/A
9:00 AM81 °FOvercast.3 mph75%29.89 "Hg9 mi
8:00 AM80 °FWarm.5 mph78%29.88 "HgN/A
7:00 AM78 °FWarm.6 mph82%29.88 "HgN/A
6:00 AM78 °FWarm.5 mph82%29.87 "HgN/A
5:00 AM77 °FWarm.5 mph80%29.84 "HgN/A
4:00 AM78 °FWarm.6 mph75%29.82 "HgN/A
3:00 AM80 °FWarm.6 mph69%29.81 "HgN/A
2:00 AM80 °FWarm.8 mph74%29.80 "HgN/A
1:00 AM80 °FWarm.7 mph72%29.79 "HgN/A
12:00 AM79 °FWarm.7 mph75%29.79 "HgN/A
Weather by CustomWeather, © 2014

See weather overviewHow to use our weather pages